Regional Weather Roundup
Issued by NWS

Home | Current Version | Previous Version | Graphics & Text | Print | Product List | Glossary On
Versions: 1 2 3 4 5 6 7 8 9 10 11 12 13 14 15 16 17 18 19 20 21 22 23 24 25 26 27 28 29 30 31 32 33 34 35 36 37 38 39 40 41 42 43 44 45 46 47 48 49 50
000
ASUS45 KABQ 290210
RWRNM
NEW MEXICO REGIONAL WEATHER ROUNDUP
NATIONAL WEATHER SERVICE ALBUQUERQUE NM
800 PM MDT WED JUN 28 2017

NOTE: "FAIR" MEANS FEW OR NO CLOUDS BELOW 12,000 FEET AGL WITH NO
       SIGNIFICANT WEATHER OR OBSTRUCTIONS TO VISION.

      THIS PRODUCT IS RELEASED AS TWO VERSIONS.  ONE VERSION NEAR
      THE TOP OF THE HOUR CONTAINING PRELIMINARY DATA FROM ALBUQUERQUE
      AND OTHER STATIONS.  A FINAL VERSION WITH ADDITIONAL DATA IS
      ISSUED ABOUT 10 MINUTES AFTER THE HOUR.

NMZ501-503-504-510>518-290300-
NORTHWEST PLATEAU/NORTHCENTRAL MOUNTAINS

CITY           SKY/WX    TMP DP  RH WIND       PRES   REMARKS
FARMINGTON     FAIR      89   4   4 W9        29.89S
LOS ALAMOS     FAIR      81  11   7 SW5       30.08S
SANTA FE       FAIR      85   5   5 W14G24    29.99R
TAOS           FAIR      81  19  10 NW14G21   30.06R
ANGEL FIRE     FAIR      70  21  15 W16G22    30.14S

$$
NMZ402-403-502-505>509-290300-
WESTCENTRAL MOUNTAINS/SOUTHWEST MOUNTAINS

CITY           SKY/WX    TMP DP  RH WIND       PRES   REMARKS
GALLUP         FAIR      83  11   6 W18G26    30.05R
GRANTS         FAIR      84  12   6 W15G23    30.07R
SILVER CITY    FAIR      86  26  11 W12       30.02S

$$
NMZ407-409-411-412-290300-
SOUTHERN DESERTS

CITY           SKY/WX    TMP DP  RH WIND       PRES   REMARKS
DEMING         FAIR      93  24   8 W14       29.92R
LAS CRUCES     FAIR      93  21   7 W15G22    29.92R
HOLLOMAN AFB   FAIR      96  16   5 S3        29.87S
ALAMOGORDO     FAIR      93  18   6 SW3       29.88R
T OR C         FAIR      95  19   6 W13       29.89R

$$
NMZ519>523-290300-
CENTRAL VALLEYS/CENTRAL HIGHLANDS

CITY           SKY/WX    TMP DP  RH WIND       PRES   REMARKS
ALBUQUERQUE    FAIR      91   9   4 NW9       29.93R
MORIARTY ARPT  FAIR      85  20   9 W8        30.01S
CLINES CORNERS FAIR      80  13   8 W14       30.07R
BELEN          FAIR      91  17   6 W10       29.93R
SOCORRO        FAIR      91  26   9 E7        29.89R

$$
NMZ524>526-539-540-290300-
SOUTHCENTRAL MOUNTAINS

CITY           SKY/WX    TMP DP  RH WIND       PRES   REMARKS
RUIDOSO        FAIR      77  21  12 W7        30.12S

$$
NMZ527>531-290300-
NORTHEAST HIGHLANDS/NORTHEAST PLAINS

CITY           SKY/WX    TMP DP  RH WIND       PRES   REMARKS
LAS VEGAS      LGT RAIN  80  11   7 SW15      30.02R
RATON          FAIR      81  18   9 W6        29.90S
CLAYTON        FAIR      78  49  35 SE10      29.82S

$$
NMZ532>537-290300-
EASTCENTRAL PLAINS

CITY           SKY/WX    TMP DP  RH WIND       PRES   REMARKS
SANTA ROSA     FAIR      89  20   8 SW9       29.85R
TUCUMCARI      FAIR      89  22   8 SW10      29.75R
CANNON AFB     FAIR      89  28  11 W9        29.85R
CLOVIS AIRPORT FAIR      86  36  16 W8        29.84R

$$
NMZ028-029-538-290300-
SOUTHEAST PLAINS

CITY           SKY/WX    TMP DP  RH WIND       PRES   REMARKS
ROSWELL        FAIR      97  25   7 W10       29.79R
ARTESIA        FAIR      97  28   9 SW13      29.80R
CARLSBAD       FAIR      96  34  11 SW10      29.78R
HOBBS          FAIR      90  55  31 SE14      29.85R


$$




USA.gov is the U.S. government's official web portal to all federal, state and local government web resources and services.